Zurück zum Katalog

SPACEMOBILE-002

AktivKommunikationVLEO
NORAD 61048·PAYLOAD·🇺🇸 United States

Gestartet Sep 12, 2024 von Cape Canaveral Space Force Station

Loading…

Nächste Überflüge (nächste 24 Stunden)

TLE

AktuellSource: CelesTrak SupGP

Epoche: Sep 14, 2026, 23:06 UTC

1 61048C 24163D   26257.96276352 -.00691300  00000+0 -31045-1 0  2578
2 61048  52.9754 256.4141 0006674  36.6697 322.5404 15.20662415    19

Verfolge SPACEMOBILE-002 in Echtzeit mit AllMySat

Download on the App Store